Regional Weather Roundup
Issued by NWS

Home | Current Version | Previous Version | Graphics & Text | Print | Product List | Glossary On
Versions: 1 2 3 4 5 6 7 8 9 10 11 12 13 14 15 16 17 18 19 20 21 22 23 24 25 26 27 28 29 30 31 32 33 34 35 36 37 38 39 40 41 42 43 44 45 46 47 48 49 50
000
ASUS43 KFSD 011802
RWRSD

WEATHER ROUNDUP FOR SOUTH DAKOTA
NATIONAL WEATHER SERVICE SIOUX FALLS SD
100 PM CDT WED JUL 01 2015

NOTE: "FAIR" INDICATES FEW OR NO CLOUDS BELOW 12,000 FEET WITH NO
SIGNIFICANT WEATHER AND/OR OBSTRUCTIONS TO VISIBILITY.


SDZ001>005-009-010-012>017-011900-
NORTHWEST AND NORTH CENTRAL SOUTH DAKOTA

CITY           SKY/WX    TMP DP  RH WIND       PRES   REMARKS
BUFFALO          N/A     72  62  71 VRB6      29.96R
FAITH            N/A     73  63  70 NE10      29.97R
MOBRIDGE       CLOUDY    75  66  73 S6        29.92R
$$

SDZ012>016-024>037-041>051-057-063-072>074-011900-
SOUTHWEST AND SOUTH CENTRAL SOUTH DAKOTA

CITY           SKY/WX    TMP DP  RH WIND       PRES   REMARKS
RAPID CTY ARPT SUNNY     80  59  48 N23G31    29.99S HAZE
PIERRE         CLOUDY    77  64  64 CALM      29.90R
CUSTER         MOSUNNY   79  47  32 W10G18    30.14S
PHILIP         CLOUDY    74  66  76 N8        29.95R
PINE RIDGE     SUNNY     82  60  47 NW7       30.01S
WINNER         MOCLDY    82  64  54 N6        29.91R
$$

SDZ004>011-016>023-039-040-011900-
NORTHEAST SOUTH DAKOTA

CITY           SKY/WX    TMP DP  RH WIND       PRES   REMARKS
ABERDEEN       PTSUNNY   75  64  68 SE8       29.93S
WATERTOWN      CLOUDY    67  60  78 SE9       29.97R
BROOKINGS      PTSUNNY   68  59  73 SE14G21   29.97F
SISSETON         N/A     70  61  73 SE12      29.96S
$$

SDZ017-020-022-023-036>040-048>070-011900-
SOUTHEAST SOUTH DAKOTA

CITY           SKY/WX    TMP DP  RH WIND       PRES   REMARKS
SIOUX FALLS    CLOUDY    69  63  81 SE10      29.95R
HURON          PTSUNNY   76  66  71 E10       29.90F
CHAMBERLAIN    CLOUDY    76  65  69 E6        29.91S
MITCHELL       CLOUDY    75  66  73 SE10      29.92R
YANKTON        CLOUDY    73  64  73 SE9       29.90R
$$

ABBREVIATIONS USED IN REMARKS
   TC - TEMPERATURE IN CELSIUS
  WCI - WIND CHILL INDEX
   HX - HEAT INDEX
  VSB - VISIBILITY




USA.gov is the U.S. government's official web portal to all federal, state and local government web resources and services.